This demonstration page uses our WeatherBlox Daily Observations layout. Learn more.

Left ArrowRight Arrow

39.12711, -84.51439

Hourly Observations for October 11, 2021

Temp ( °F °C ) Dew Point ( °F °C ) Humidity (%) Winds ( mph kmh ) Pressure ( in mb ) Visibility ( mi km ) Precip ( " mm )
12:53 am 00:53 Clear 67 19.4 65 18.3 93 93 WSW 3 6 29.91 1013 10 16 0.00 0.00
1:53 am 01:53 Clear 64 17.8 64 17.8 100 100 Calm 29.91 1013 7 11 0.00 0.00
2:22 am 02:22 Clear with Mist and Fog 63 17.2 63 17.2 100 100 Calm 29.91 1013 2 3 0.00 0.00
2:33 am 02:33 Clear with Mist and Fog 63 17.2 63 17.2 100 100 Calm 29.91 1013 3 5 0.00 0.00
2:53 am 02:53 Clear with Mist and Fog 62 16.7 62 16.7 100 100 Calm 29.91 1013 3 5 0.00 0.00
2:57 am 02:57 Clear with Mist and Fog 62 16.7 62 16.7 100 100 Calm 29.92 1013 1 1 0.00 0.00
3:30 am 03:30 Mostly Cloudy with Fog 60 15.6 60 15.6 100 100 Calm 29.93 1013 0 0 0.00 0.00
3:43 am 03:43 Mostly Cloudy with Mist and Fog 62 16.7 62 16.7 100 100 Calm 29.92 1013 1 2 0.00 0.00
3:45 am 03:45 Mostly Clear with Mist and Fog 62 16.7 62 16.7 100 100 Calm 29.92 1013 2 3 0.00 0.00
3:48 am 03:48 Mostly Cloudy with Mist and Fog 63 17 63 17 100 100 Calm 29.92 1013 1 2 0.00 0.00
3:53 am 03:53 Mostly Cloudy with Fog 61 16.1 61 16.1 100 100 Calm 29.91 1013 0 0 0.00 0.00
4:53 am 04:53 Mostly Cloudy with Fog 60 15.6 60 15.6 100 100 Calm 29.93 1013 0 0 0.00 0.00
5:02 am 05:02 Mostly Cloudy with Mist and Fog 61 16.1 61 16.1 100 100 Calm 29.94 1014 1 2 0.00 0.00
5:16 am 05:16 Mostly Cloudy with Fog 61 16.1 61 16.1 100 100 Calm 29.94 1014 1 1 0.00 0.00
5:27 am 05:27 Clear with Mist and Fog 62 16.7 62 16.7 100 100 Calm 29.93 1014 1 1 0.00 0.00
5:31 am 05:31 Clear with Mist and Fog 61 16.1 61 16.1 100 100 Calm 29.94 1014 2 3 0.00 0.00
5:48 am 05:48 Clear with Mist and Fog 63 17 63 17 100 100 Calm 29.94 1014 6 10 0.00 0.00
5:53 am 05:53 Clear with Mist and Fog 61 16.1 61 16.1 100 100 Calm 29.93 1014 2 3 0.00 0.00
6:08 am 06:08 Clear with Mist and Fog 62 16.7 62 16.7 100 100 Calm 29.94 1014 3 5 0.00 0.00
6:28 am 06:28 Clear with Mist and Fog 62 16.7 62 16.7 100 100 Calm 29.94 1014 2 2 0.00 0.00
6:36 am 06:36 Clear with Mist and Fog 62 16.7 62 16.7 100 100 W 3 6 29.94 1014 6 10 0.00 0.00
6:53 am 06:53 Clear with Mist and Fog 60 15.6 60 15.6 100 100 Calm 29.95 1014 6 10 0.00 0.00
7:53 am 07:53 Sunny 61 16.1 61 16.1 100 100 Calm 29.95 1014 8 13 0.00 0.00
8:53 am 08:53 Sunny 65 18.3 65 18.3 100 100 Calm 29.96 1014 10 16 0.00 0.00
9:53 am 09:53 Sunny 71 21.7 66 18.9 84 84 Calm 29.96 1015 10 16 0.00 0.00
10:53 am 10:53 Sunny 73 22.8 66 18.9 79 79 S 10 17 29.95 1014 10 16 0.00 0.00
11:53 am 11:53 Sunny 77 25 67 19.4 71 71 S 8 13 29.93 1014 10 16 0.00 0.00
12:53 pm 12:53 Sunny 81 27.2 66 18.9 61 61 SSW 13 20 29.91 1013 10 16 0.00 0.00
1:53 pm 13:53 Sunny 80 26.7 66 18.9 62 62 S 9 15 29.89 1012 10 16 0.00 0.00
2:53 pm 14:53 Sunny 80 26.7 65 18.3 60 60 S 12 19 29.86 1011 10 16 0.00 0.00
3:53 pm 15:53 Sunny 80 26.7 65 18.3 60 60 SSE 9 15 29.85 1011 10 16 0.00 0.00
4:53 pm 16:53 Sunny 80 26.7 64 17.8 58 58 SE 13 20 29.82 1010 10 16 0.00 0.00
5:53 pm 17:53 Sunny 79 26.1 65 18.3 62 62 SE 15 24 29.81 1009 10 16 0.00 0.00
6:53 pm 18:53 Sunny 76 24.4 64 17.8 67 67 VRB 5 7 29.82 1010 10 16 0.00 0.00
7:53 pm 19:53 Clear 72 22.2 65 18.3 79 79 SW 8 13 29.86 1011 10 16 0.00 0.00
8:53 pm 20:53 Clear 75 23.9 65 18.3 71 71 SSE 9 15 29.84 1011 10 16 0.00 0.00
9:53 pm 21:53 Mostly Clear 73 22.8 65 18.3 76 76 S 9 15 29.85 1011 10 16 0.00 0.00
10:53 pm 22:53 Partly Cloudy with Light Rain 73 22.8 65 18.3 76 76 S 9 15 29.86 1011 10 16 0.00 0.00
11:53 pm 23:53 Partly Cloudy 73 22.8 64 17.8 74 74 S 12 19 29.86 1011 10 16 0.00 0.00

Powered by AerisWeather